Regional Weather Roundup
Issued by NWS

Home | Current Version | Previous Version | Text Only | Print | Product List | Glossary Off
Versions: 1 2 3 4 5 6 7 8 9 10 11 12 13 14 15 16 17 18 19 20 21 22 23 24 25 26 27

000
ASUS45 KTFX 240710
RWRMT
MONTANA REGIONAL WEATHER ROUNDUP
NATIONAL WEATHER SERVICE GREAT FALLS MT
1200 AM MST SAT FEB 24 2018

NOTE: "FAIR" INDICATES FEW OR NO CLOUDS BELOW 12000 FEET WITH NO
SIGNIFICANT WEATHER AND/OR OBSTRUCTIONS TO VISIBILITY.

MTZ001>007-043-240800-
WEST OF THE DIVIDE

CITY           SKY/WX    TMP DP  RH WIND       PRES   REMARKS
KALISPELL      CLOUDY    19  14  81 S7        30.00F WCI  10
MISSOULA       CLOUDY    17  12  80 CALM      30.02F
BUTTE          MOCLDY     9  -1  64 E5        29.86F
MULLAN PASS    LGT SNOW   7   5  91 SW8       29.83F FOG     WCI  -6
ANACONDA         N/A     18   3  53 W10       29.89F WCI   6
DEER LODGE       N/A      9   3  78 W5        29.92S
HAMILTON         N/A     25   5  42 MISG      30.00F
PLAINS           N/A     20   9  62 CALM      30.06F
RONAN            N/A     18  14  86 S7        30.03F WCI   8
$$

MTZ008-052>055-240800-
SOUTHWEST MONTANA

CITY           SKY/WX    TMP DP  RH WIND       PRES   REMARKS
BOZEMAN        CLOUDY    14   6  70 CALM      29.90F
DILLON         CLOUDY     8   4  83 SW15      29.90F WCI  -9
ENNIS          CLOUDY    18   7  62 S15G21    29.93F WCI   3
W YELLOWSTONE  LGT SNOW   9   3  78 SW12G17   29.87F WCI  -6
THREE FORKS      N/A     13   7  77 CALM      29.89F
TWIN BRIDGES     N/A     17   1  49 CALM      29.91
$$

MTZ009-010-012-014-046-048-049-054-240800-
EAST SLOPES AND CENTRAL MONTANA

CITY           SKY/WX    TMP DP  RH WIND       PRES   REMARKS
CUT BANK       CLOUDY    16  10  77 W32       29.68F WCI  -5
GREAT FALLS    FAIR      15   5  64 SW22      29.76F WCI  -3
MALMSTROM AFB  FAIR      17   8  66 SW25G32   29.78F WCI  -1
HELENA         MOCLDY    21   5  50 W13       29.90F WCI   9
AUGUSTA        SNOWSHWR  15   9  77 W29G38    29.71S WCI  -5
BOWMANS CRNR   MOCLDY    14   7  73 SW24      29.74F WCI  -5
CHOTEAU          N/A     18   7  62 W28G40    29.71F HAZE    WCI  -1
CONRAD           N/A     21   6  52 S3        29.77
FAIRFIELD      FAIR      16   5  62 SW10      29.73F WCI   3
POWER          FAIR      12   4  71 SW16      29.74S WCI  -5
RAYNESFORD     FAIR      19   4  53 SW20G26   29.77S WCI   2
ULM            FAIR      17   8  67 SW23G29   29.79F WCI  -1
WHITE SULPHUR    N/A     14   0  52 CALM      29.78F
$$

MTZ011-013-016-021-045-047-050-051-240800-
NORTH CENTRAL MONTANA

CITY           SKY/WX    TMP DP  RH WIND       PRES   REMARKS
HAVRE          FAIR      12   5  73 SW17      29.78F WCI  -5
LEWISTOWN      FAIR      12   3  67 SW20      29.74F WCI  -6
N BAR RANCH    FAIR      10  -2  56 W7        29.75F WCI   0
CHINOOK          N/A     16   5  62 NW6       29.79F WCI   7
GEYSER         FAIR      17   4  56 W25G33    29.74S WCI  -1
STANFORD       FAIR      11   2  66 W14       29.72F WCI  -5
WINIFRED       FAIR      13   2  60 SW12      29.76S WCI  -1
$$

MTZ017>020-022>027-061-062-240800-
NORTHEAST MONTANA

CITY           SKY/WX    TMP DP  RH WIND       PRES   REMARKS
GLASGOW        FAIR      -5 -10  79 SE15      29.83F WCI -26
GLENDIVE       FAIR       3  -4  72 SW10      29.90F WCI -12
JORDAN           N/A      9   0  67 VRB7      29.83F WCI  -2
MALTA          CLEAR    -18 -22  83 CALM      29.81F
SIDNEY         FAIR      -8 -11  86 S8        29.93F WCI -24
WOLF POINT     FAIR     -11 -16  78 CALM      29.89F
PLENTYWOOD       N/A      0  -8  71 SE9       29.85F WCI -16
POPLAR           N/A     -6  -9  84 N5        29.90F
SCOBEY           N/A      3  -7  63 S2        29.79
$$

MTZ028>42-056>058-240800-
SOUTHCENTRAL AND SOUTHEAST MONTANA

CITY           SKY/WX    TMP DP  RH WIND       PRES   REMARKS
BAKER          FAIR      -4  -8  83 SE9       29.89F WCI -20
BILLINGS       FAIR      13   4  67 SW15      29.83F WCI  -3
LIVINGSTON     CLOUDY    21   7  54 W24       29.81F WCI   4
MILES CITY     FAIR      -8 -12  83 CALM      29.89F
BIG TIMBER     MOCLDY    19   9  63 W29G36    29.79F WCI   1
FORSYTH          N/A      0  -6  78 CALM      29.87F
HARLOWTON      FAIR      13   3  64 NW18      29.77F WCI  -4
LAUREL           N/A     10   3  72 SW14      29.84F WCI  -5
$$

REGIONAL REPORTS...DAKOTAS

CITY           SKY/WX    TMP DP  RH WIND       PRES   REMARKS
WILLISTON      FAIR      -4  -8  83 SW6       29.92F WCI -16
MINOT          FAIR      14   0  53 SW14G20   29.95F WCI  -1
DICKINSON      FAIR       4  -4  69 S13       29.91F WCI -13
BEACH          FAIR       5  -2  72 S14       29.91F WCI -12
CROSBY         FAIR       3  -2  78 S15       29.89F WCI -15
TIOGA          FAIR       3   0  85 CALM      29.91F
WATFORD CITY   FAIR      -8 -11  84 CALM      29.92F
BISMARCK       FAIR       2  -3  80 E5        30.08F
GRAND FORKS    FAIR       1  -3  83 S10       30.19F WCI -15
FARGO          FAIR       3   0  87 S8        30.23F WCI -10
BUFFALO SD       N/A      3  -3  76 S7        29.83F WCI  -9
RAPID CITY     FAIR      13   4  67 CALM      29.92F
$$

REGIONAL REPORTS...WYOMING/IDAHO/WASHINGTON

CITY           SKY/WX    TMP DP  RH WIND       PRES   REMARKS
GILLETTE       CLOUDY    18  13  80 S14       29.82F WCI   4
SHERIDAN       FAIR      -4  -7  87 CALM      29.83F
BUFFALO WY     FAIR      16  -3  43 N5        29.77F
CODY           FAIR      21   1  41 W14G22    29.81F WCI   8
YELLOWSTONE LA   N/A     -7 -11  83 CALM      29.86F
IDAHO FALLS    FAIR      16   8  71 SW15G24   30.05F WCI   1
SALMON         CLOUDY    19  12  74 CALM      30.03F
BOISE          CLOUDY    24  14  65 SE8       30.21F WCI  15
SPOKANE        FLURRIES  22  21  96 S8        30.06F WCI  12
$$

REGIONAL REPORTS...ALBERTA

CITY           SKY/WX    TMP DP  RH WIND       PRES   REMARKS
CALGARY        CLOUDY    25   3  39 W18G26    29.57F WCI  11
CARDSTON         N/A     19   7  58 W20G29      N/A  WCI   4
EDMONTON       PTCLDY    28  10  47 W13       29.51S WCI  18
FORT MCMURRAY  LGT SNOW  23  19  86 N8        29.44  WCI  14
HIGH LEVEL     CLOUDY    16  14  93 N7        29.60R WCI   6
LETHBRIDGE     LGT SNOW  19  12  73 W39G48    29.66S VSB 1   WCI  -2
LLOYDMINSTER   MOCLDY    16  12  86 SW13      29.49S WCI   2
MEDICINE HAT   MOCLDY    21  14  73 S15G21    29.67F WCI   8
ONEFOUR          N/A     10   7  85 W8          N/A  WCI  -1
PEACE RIVER    LGT SNOW  27  25  93 N14       29.47R WCI  15
PINCHER CREEK  LGT SNOW  16   7  67 W38G45    29.69F WCI  -6
WATERTON GATE    N/A     18   3  53 SW31G47     N/A  WCI  -2
$$

REGIONAL REPORTS...SASKATCHEWAN

CITY           SKY/WX    TMP DP  RH WIND       PRES   REMARKS
CYPRESS HILLS    N/A      7   3  85 SW6         N/A  WCI  -3
ESTEVAN        CLEAR      7   0  72 S13       29.87F WCI  -9
MOOSE JAW        N/A      7   0  72 S17         N/A  WCI -12
PRINCE ALBERT  PTCLDY     9   1  72 SW6       29.59F WCI  -1
REGINA         CLEAR      3  -4  72 S15       29.75F WCI -15
ROCKGLEN         N/A      5   0  78 SW17        N/A  WCI -14
SASKATOON      MOCLDY     9   1  72 S15       29.61F WCI  -8
VAL MARIE        N/A     -4  -9  77 S14         N/A  WCI -24
$$




USA.gov is the U.S. government's official web portal to all federal, state and local government web resources and services.